Flag for Germany Weather past 2 weeks in Delmenhorst, Lower Saxony, Germany

Now
63 °F

Clear.


Feels Like: 63 °F
Forecast: 64 / 71 °F
Wind: 8 mph from Northeast

Location: Bremen Airport

Current Time: Jul 24, 2014 at 3:24:59 AM

Latest Report: Jul 24, 2014 at 2:50 AM


Visibility: 10 mi

Pressure: 30.07 "Hg

Humidity: 77%

Dew point: 55 °F

Location of DelmenhorstLocation

Historic Weather in Delmenhorst — Graph

°F

Delmenhorst temperature yesterday

Maximum temperature yesterday: 81 °F (at 2:20 PM)
Minimum temperature yesterday: 63 °F (at 4:50 AM)
Average temperature yesterday: 72 °F

Past Weeks' High & Low Weather Summary

 TemperatureHumidityPressure
High90 °F (Jul 19, 1:50 PM)100% (Jul 9, 4:50 AM)30.18 "Hg (Jul 9, 4:50 AM)
Low54 °F (Jul 17, 4:50 AM)27% (Jul 19, 4:20 PM)29.59 "Hg (Jul 9, 2:50 PM)
Average70 °F70%29.94 "Hg
* Reported Jul 9 2:20 AM — Jul 24 2:20 AM, Delmenhorst, Weather by CustomWeather, © 2014

Note: Actual official high and low records may vary slightly from our data, if they occured in-between our weather recording intervals... More about our weather records

Advertising

Delmenhorst weather history for previous 24 hours

 ConditionsComfort  
Time TempWeatherWind HumidityBarometerVisibility
2:20 AM
Jul 24
64 °FClear.8 mph73%30.07 "Hg10 mi
1:50 AM64 °FClear.8 mph73%30.07 "Hg10 mi
1:20 AM64 °FClear.8 mph68%30.07 "Hg10 mi
12:50 AM66 °FClear.9 mph64%30.07 "Hg10 mi
12:20 AM66 °FClear.9 mph64%30.07 "Hg10 mi
11:50 PM
Jul 23
68 °FClear.8 mph60%30.07 "Hg10 mi
11:20 PM68 °FClear.8 mph60%30.09 "Hg10 mi
10:50 PM70 °FClear.9 mph57%30.09 "Hg10 mi
10:20 PM72 °FSunny.10 mph53%30.07 "Hg10 mi
9:50 PM73 °FSunny.12 mph50%30.07 "Hg10 mi
9:20 PM73 °FSunny.13 mph50%30.07 "Hg10 mi
8:50 PM75 °FSunny.14 mph47%30.07 "Hg10 mi
8:20 PM77 °FSunny.16 mph47%30.07 "Hg10 mi
7:50 PM79 °FSunny.17 mph48%30.07 "Hg10 mi
7:20 PM79 °FSunny.17 mph45%30.07 "Hg10 mi
6:50 PM79 °FSunny.17 mph45%30.07 "Hg10 mi
6:20 PM81 °FSunny.16 mph42%30.07 "Hg10 mi
5:50 PM81 °FSunny.16 mph39%30.07 "Hg10 mi
5:20 PM81 °FPleasantly warm.13 mph39%30.07 "HgN/A
4:50 PM81 °FPassing clouds.16 mph39%30.07 "HgN/A
4:20 PM81 °FSunny.14 mph39%30.09 "Hg10 mi
3:50 PM81 °FSunny.14 mph37%30.09 "Hg10 mi
3:20 PM81 °FSunny.17 mph37%30.09 "Hg10 mi
2:20 PM81 °FSunny.15 mph37%30.12 "Hg10 mi
1:20 PM79 °FPassing clouds.13 mph37%30.12 "HgN/A
12:50 PM77 °FSunny.17 mph44%30.12 "Hg10 mi
12:20 PM79 °FPassing clouds.16 mph39%30.12 "HgN/A
7:20 AM66 °FSunny.8 mph73%30.15 "Hg10 mi
6:50 AM64 °FPassing clouds.7 mph78%30.15 "HgN/A
6:20 AM63 °FPassing clouds.8 mph83%30.15 "HgN/A
5:50 AM63 °FClear.8 mph83%30.15 "Hg10 mi
5:20 AM63 °FClear.9 mph83%30.15 "Hg10 mi
4:50 AM63 °FClear.12 mph83%30.12 "Hg10 mi
4:20 AM64 °FClear.10 mph78%30.12 "Hg10 mi
3:50 AM64 °FClear.10 mph78%30.15 "Hg10 mi
3:20 AM64 °FClear.12 mph78%30.15 "Hg10 mi
Weather by CustomWeather, © 2014

See weather overviewHow to use our weather pages